K6NC Weather Reports


Display with metric or nautical units.
time (UTC)temp
F
wind
direction
speed
MPH
gust
MPH
rain 1hr
in
rain 24hr
in
rain mn
in
humidity
%
barometer
mb
20260905052021 61 221 4.0 6.0 0.00 0.02 0.02 69 1013.8
20260905051019 62 228 3.0 8.0 0.00 0.02 0.02 69 1013.8
20260905050517 62 223 3.0 7.0 0.00 0.02 0.02 68 1013.8
20260905045519 63 223 3.0 6.0 0.00 0.02 0.02 66 1013.8
20260905045019 63 239 3.0 8.0 0.00 0.02 0.02 66 1013.8
20260905044537 63 234 4.0 8.0 0.00 0.02 0.02 65 1013.8
20260905044015 63 232 3.0 7.0 0.00 0.02 0.02 65 1013.7
20260905042020 64 242 3.0 6.0 0.00 0.02 0.02 63 1013.5
20260905041019 65 255 3.0 9.0 0.00 0.02 0.02 62 1013.4
20260905040519 65 242 5.0 9.0 0.00 0.02 0.02 63 1013.4
20260905040035 65 246 5.0 8.0 0.00 0.02 0.02 63 1013.4
20260905033519 66 255 2.0 6.0 0.00 0.02 0.02 61 1013.3
20260905032517 66 258 3.0 5.0 0.00 0.02 0.02 60 1013.1
20260905032023 66 246 2.0 6.0 0.00 0.02 0.02 59 1013.2
20260905031019 67 251 3.0 8.0 0.00 0.02 0.02 57 1013.0
20260905030520 67 264 3.0 9.0 0.00 0.02 0.02 56 1013.0
20260905024020 69 0 0.0 0.0 0.00 0.02 0.02 46 1012.5
20260905023520 69 0 0.0 0.0 0.00 0.02 0.02 47 1012.6
20260905022517 70 0 0.0 3.0 0.00 0.02 0.02 50 1012.6
20260905022019 71 255 1.0 4.0 0.00 0.02 0.02 48 1012.6
20260905021018 72 236 2.0 4.0 0.00 0.02 0.02 39 1012.7
20260905020518 72 225 2.0 4.0 0.00 0.02 0.02 39 1012.7
20260905015023 74 265 3.0 7.0 0.00 0.02 0.02 36 1012.8
20260905014021 74 251 4.0 8.0 0.00 0.02 0.02 34 1012.8
20260905013521 74 250 5.0 8.0 0.00 0.02 0.02 33 1012.8
20260905013045 74 272 4.0 7.0 0.00 0.02 0.02 33 1012.7
20260905012516 75 252 3.0 9.0 0.00 0.02 0.02 33 1012.6
20260905012016 75 254 4.0 9.0 0.00 0.02 0.02 34 1012.6
20260905011612 75 221 3.0 8.0 0.00 0.02 0.02 32 1012.5
20260905005518 76 277 4.0 9.0 0.00 0.02 0.02 39 1012.6
20260905005020 76 245 2.0 9.0 0.00 0.02 0.02 35 1012.5
20260905004019 77 200 5.0 9.0 0.00 0.02 0.02 36 1012.5
20260905003519 76 232 3.0 9.0 0.00 0.02 0.02 37 1012.4
20260905003039 77 268 4.0 10.0 0.00 0.02 0.02 36 1012.5
20260905002518 77 224 7.0 10.0 0.00 0.02 0.02 37 1012.5
20260905002018 76 250 1.0 7.0 0.00 0.02 0.02 37 1012.5
20260905001549 76 209 2.0 9.0 0.00 0.02 0.02 37 1012.6
20260905000519 76 250 3.0 11.0 0.00 0.02 0.02 38 1012.7
20260904235519 78 251 7.0 11.0 0.00 0.02 0.02 38 1012.7
20260904235021 76 202 5.0 9.0 0.00 0.02 0.02 38 1012.7
20260904234017 78 232 7.0 10.0 0.00 0.02 0.02 38 1012.8
20260904233517 77 0 4.0 10.0 0.00 0.02 0.02 38 1012.9
20260904232518 78 257 6.0 10.0 0.00 0.02 0.02 42 1012.9
20260904232019 78 188 5.0 10.0 0.00 0.02 0.02 40 1012.9
20260904231537 77 265 5.0 10.0 0.00 0.02 0.02 43 1013.0
20260904231018 77 279 4.0 10.0 0.00 0.02 0.02 42 1012.9
20260904230517 78 267 3.0 10.0 0.00 0.02 0.02 40 1013.0
20260904230036 79 271 6.0 10.0 0.00 0.02 0.02 40 1013.1
20260904225522 78 229 4.0 12.0 0.00 0.02 0.02 39 1013.1
20260904225019 79 234 8.0 12.0 0.00 0.02 0.02 38 1013.2
20260904224536 78 226 5.0 12.0 0.00 0.02 0.02 41 1013.1
20260904224020 77 291 8.0 12.0 0.00 0.02 0.02 42 1013.2
20260904223520 77 33 6.0 11.0 0.00 0.02 0.02 44 1013.2
20260904222521 79 243 6.0 12.0 0.00 0.02 0.02 39 1013.2
20260904222018 78 240 8.0 12.0 0.00 0.02 0.02 41 1013.2
20260904221017 78 291 1.0 14.0 0.00 0.02 0.02 41 1013.1
20260904220519 79 262 8.0 14.0 0.00 0.02 0.02 40 1013.2
20260904220106 78 288 4.0 12.0 0.00 0.02 0.02 42 1013.1
20260904215518 78 96 7.0 12.0 0.00 0.02 0.02 40 1013.1
20260904215018 78 241 6.0 11.0 0.00 0.02 0.02 42 1013.1
20260904214020 77 244 4.0 8.0 0.00 0.02 0.02 42 1013.1
20260904213520 76 110 1.0 10.0 0.00 0.02 0.02 43 1013.3
20260904213039 78 159 3.0 10.0 0.00 0.02 0.02 40 1013.3
20260904212519 78 178 2.0 12.0 0.00 0.02 0.02 41 1013.3
20260904212016 79 248 6.0 13.0 0.00 0.02 0.02 41 1013.3
20260904210518 78 142 5.0 13.0 0.00 0.02 0.02 42 1013.3
20260904205525 78 243 5.0 11.0 0.00 0.02 0.02 42 1013.3
20260904205017 77 203 4.0 9.0 0.00 0.02 0.02 43 1013.3
20260904204017 76 0 1.0 9.0 0.00 0.02 0.02 47 1013.2
20260904203518 77 160 4.0 10.0 0.00 0.02 0.02 44 1013.3
20260904203037 77 269 4.0 10.0 0.00 0.02 0.02 44 1013.3
20260904202517 76 211 4.0 13.0 0.00 0.02 0.02 45 1013.3
20260904200519 76 227 7.0 12.0 0.00 0.02 0.02 48 1013.3
20260904195521 75 273 3.0 8.0 0.00 0.02 0.02 50 1013.4
20260904195019 72 0 0.0 2.0 0.00 0.02 0.02 57 1013.5
20260904194017 72 0 0.0 11.0 0.00 0.02 0.02 54 1013.6
20260904193516 74 0 2.0 12.0 0.00 0.02 0.02 52 1013.6
20260904192515 74 207 4.0 12.0 0.00 0.02 0.02 52 1013.7
20260904185519 74 205 5.0 13.0 0.00 0.02 0.02 53 1013.8
20260904185017 73 258 4.0 11.0 0.00 0.02 0.02 55 1013.9
20260904184020 72 188 5.0 11.0 0.00 0.02 0.02 56 1014.0
20260904183519 73 225 6.0 11.0 0.00 0.02 0.02 57 1013.9
20260904183040 72 220 5.0 10.0 0.00 0.02 0.02 58 1013.9
20260904182025 71 0 2.0 10.0 0.00 0.02 0.02 61 1013.9
20260904181020 69 157 4.0 9.0 0.00 0.02 0.02 64 1013.9
20260904180522 69 193 4.0 11.0 0.00 0.02 0.02 64 1014.0
20260904175517 70 227 5.0 11.0 0.00 0.02 0.02 66 1014.1
20260904175017 70 236 5.0 10.0 0.00 0.02 0.02 68 1014.1
20260904174535 69 257 5.0 10.0 0.00 0.02 0.02 68 1014.1
20260904174016 69 238 4.0 10.0 0.00 0.02 0.02 69 1014.1
20260904173519 68 227 4.0 10.0 0.00 0.02 0.02 68 1014.1
20260904173038 68 242 3.0 9.0 0.00 0.02 0.02 68 1014.1
20260904171017 67 223 2.0 10.0 0.00 0.02 0.02 75 1013.8
20260904170519 67 179 4.0 10.0 0.00 0.02 0.02 76 1013.8
20260904165524 66 235 4.0 9.0 0.00 0.02 0.02 76 1013.8
20260904165021 65 242 4.0 10.0 0.00 0.02 0.02 78 1013.7
20260904164545 65 261 6.0 10.0 0.00 0.02 0.02 79 1013.7
20260904164018 64 250 2.0 9.0 0.00 0.02 0.02 81 1013.7
20260904163516 64 225 4.0 9.0 0.00 0.02 0.02 81 1013.6
20260904160520 62 184 3.0 7.0 0.00 0.02 0.02 85 1013.5
20260904155518 61 0 2.0 7.0 0.00 0.02 0.02 85 1013.5
20260904155019 61 172 2.0 7.0 0.00 0.02 0.02 85 1013.4
20260904154023 60 0 0.0 3.0 0.00 0.02 0.02 87 1013.4
20260904153518 59 0 0.0 5.0 0.00 0.02 0.02 87 1013.4
20260904152521 59 163 2.0 5.0 0.00 0.02 0.02 86 1013.4
20260904152019 59 0 0.0 4.0 0.00 0.02 0.02 86 1013.4
20260904151019 59 200 2.0 4.0 0.00 0.02 0.02 86 1013.4
20260904150520 59 217 1.0 7.0 0.00 0.02 0.02 86 1013.4
20260904145517 59 235 4.0 7.0 0.00 0.02 0.02 87 1013.3
20260904145020 59 223 4.0 6.0 0.00 0.02 0.02 87 1013.2
20260904144535 59 210 4.0 6.0 0.00 0.02 0.02 87 1013.2
20260904144019 59 225 3.0 5.0 0.00 0.02 0.02 87 1013.1
20260904143516 59 200 2.0 5.0 0.00 0.02 0.02 87 1013.0
20260904142518 60 204 2.0 5.0 0.00 0.02 0.02 87 1012.9
20260904142023 60 211 1.0 6.0 0.00 0.02 0.02 87 1012.8
20260904141017 60 218 3.0 6.0 0.00 0.02 0.02 86 1012.6
20260904140519 60 201 3.0 6.0 0.00 0.02 0.02 86 1012.6
20260904135518 60 181 0.0 4.0 0.00 0.02 0.02 87 1012.5
20260904135016 60 0 1.0 4.0 0.00 0.02 0.02 87 1012.5
20260904134536 60 184 2.0 4.0 0.00 0.02 0.02 87 1012.4
20260904133523 60 198 0.0 4.0 0.00 0.02 0.02 87 1012.3
20260904132519 60 0 0.0 2.0 0.00 0.02 0.02 86 1012.3
20260904132020 60 0 0.0 4.0 0.00 0.02 0.02 86 1012.2
20260904131018 61 0 0.0 1.0 0.00 0.02 0.02 87 1012.1
20260904130519 61 0 0.0 2.0 0.00 0.02 0.02 87 1012.1
20260904125518 61 177 1.0 4.0 0.00 0.02 0.02 87 1012.1
20260904125016 61 0 1.0 5.0 0.00 0.02 0.02 87 1012.1
20260904124533 61 191 2.0 5.0 0.00 0.02 0.02 87 1012.1
20260904124017 61 196 1.0 3.0 0.00 0.02 0.02 87 1012.0
20260904123522 61 0 0.0 3.0 0.00 0.02 0.02 87 1012.0
20260904123035 61 0 0.0 4.0 0.00 0.02 0.02 87 1012.0
20260904122523 61 205 2.0 5.0 0.00 0.02 0.02 87 1011.9
20260904122018 61 184 3.0 7.0 0.00 0.02 0.02 87 1012.0
20260904121019 61 175 2.0 5.0 0.00 0.02 0.02 86 1011.9
20260904120517 61 212 3.0 7.0 0.00 0.02 0.02 87 1011.9
20260904115515 61 0 0.0 3.0 0.00 0.02 0.02 87 1011.9
20260904115016 61 209 1.0 3.0 0.00 0.02 0.02 87 1011.9
20260904114536 61 0 0.0 6.0 0.00 0.02 0.02 87 1011.9
20260904114019 61 194 1.0 6.0 0.00 0.02 0.02 87 1011.8
20260904113516 61 194 1.0 5.0 0.00 0.02 0.02 87 1011.7
20260904112520 61 208 2.0 5.0 0.00 0.02 0.02 87 1011.8
20260904112017 61 0 1.0 4.0 0.00 0.02 0.02 87 1011.7
20260904111019 62 199 1.0 4.0 0.00 0.02 0.02 87 1011.7
20260904110517 61 0 0.0 4.0 0.00 0.02 0.02 88 1011.6
20260904105516 61 205 2.0 4.0 0.00 0.02 0.02 88 1011.5
20260904105018 61 203 1.0 4.0 0.00 0.02 0.02 88 1011.5
20260904104548 61 0 0.0 3.0 0.00 0.02 0.02 88 1011.5
20260904104021 61 0 0.0 5.0 0.00 0.02 0.02 88 1011.5
20260904103519 62 188 1.0 5.0 0.00 0.02 0.02 88 1011.5
20260904102519 62 202 0.0 3.0 0.00 0.02 0.02 88 1011.4
20260904102016 61 0 0.0 3.0 0.00 0.02 0.02 88 1011.3
20260904101018 61 0 0.0 3.0 0.00 0.02 0.02 88 1011.2
20260904100518 61 215 2.0 3.0 0.00 0.02 0.02 88 1011.3
20260904100038 62 209 0.0 4.0 0.00 0.02 0.02 88 1011.2
20260904095517 62 0 0.0 4.0 0.00 0.02 0.02 88 1011.2
20260904094536 62 209 1.0 4.0 0.00 0.02 0.02 88 1011.2
20260904094019 61 0 0.0 3.0 0.00 0.02 0.02 88 1011.2
20260904093520 61 175 0.0 3.0 0.00 0.02 0.02 88 1011.2
20260904092516 61 0 0.0 1.0 0.00 0.02 0.02 88 1011.1
20260904092017 61 0 0.0 1.0 0.00 0.02 0.02 88 1011.0
20260904091538 61 0 0.0 1.0 0.00 0.02 0.02 88 1011.1
20260904091017 61 0 0.0 2.0 0.00 0.02 0.02 88 1011.2
20260904090515 61 0 0.0 2.0 0.00 0.02 0.02 88 1011.2
20260904085020 62 220 2.0 7.0 0.02 0.02 0.02 87 1011.2
20260904084018 62 258 3.0 8.0 0.02 0.02 0.02 87 1011.2
20260904083517 62 244 5.0 8.0 0.02 0.02 0.02 86 1011.4
20260904083039 62 262 4.0 8.0 0.02 0.02 0.02 86 1011.3
20260904082516 63 263 3.0 6.0 0.02 0.02 0.02 85 1011.2
20260904081018 63 0 0.0 2.0 0.02 0.02 0.02 83 1011.2
20260904080518 63 0 0.0 3.0 0.02 0.02 0.02 83 1011.3
20260904075519 64 0 0.0 4.0 0.01 0.01 0.01 82 1011.4
20260904075017 64 0 0.0 4.0 0.00 0.00 0.00 81 1011.4
20260904074543 64 184 2.0 6.0 0.00 0.00 0.00 81 1011.4
20260904074018 64 213 3.0 7.0 0.00 0.00 0.00 80 1011.5
20260904073516 64 232 4.0 7.0 0.00 0.00 0.00 80 1011.5
20260904073038 64 219 3.0 6.0 0.00 0.00 0.00 79 1011.5
20260904072517 64 221 5.0 6.0 0.00 0.00 0.00 79 1011.5
20260904070520 65 252 4.0 8.0 0.00 0.00 0.00 78 1011.5
20260904065517 65 204 5.0 9.0 0.00 0.00 0.00 77 1011.4
20260904065019 65 229 3.0 9.0 0.00 0.00 0.00 77 1011.3
20260904064538 65 221 4.0 8.0 0.00 0.00 0.00 77 1011.4
20260904064017 66 252 5.0 8.0 0.00 0.00 0.00 77 1011.4
20260904063518 66 236 2.0 5.0 0.00 0.00 0.00 77 1011.4
20260904063036 66 219 3.0 7.0 0.00 0.00 0.00 76 1011.4
20260904062517 66 232 2.0 7.0 0.00 0.00 0.00 76 1011.3
20260904060520 66 207 4.0 7.0 0.00 0.00 0.00 76 1011.3
20260904055517 66 225 3.0 8.0 0.00 0.00 0.00 76 1011.4
20260904055017 66 218 5.0 8.0 0.00 0.00 0.00 76 1011.4
20260904054023 66 248 5.0 8.0 0.00 0.00 0.00 76 1011.4
20260904053518 67 242 5.0 9.0 0.00 0.00 0.00 76 1011.4